Time,TemperatureF,DewpointF,PressureIn,WindDirection,WindDirectionDegrees,WindSpeedMPH,WindSpeedGustMPH,Humidity,HourlyPrecipIn,Conditions,Clouds,dailyrainin,SoftwareType,DateUTC
2013-04-23 00:01:00,20.0,17.0,30.67,East,93,5.0,-999.0,88,-99.99,,,-99.99,,2013-04-23 06:01:00,
2013-04-23 00:12:00,20.0,17.0,30.67,East,93,5.0,-999.0,88,-99.99,,,-99.99,,2013-04-23 06:12:00,
2013-04-23 00:21:00,20.0,17.0,30.67,East,101,5.0,-999.0,87,-99.99,,,-99.99,,2013-04-23 06:21:00,
2013-04-23 00:32:00,20.0,16.0,30.67,ESE,105,6.0,-999.0,86,-99.99,,,-99.99,,2013-04-23 06:32:00,
2013-04-23 00:41:00,20.0,16.0,30.67,ESE,105,6.0,-999.0,86,-99.99,,,-99.99,,2013-04-23 06:41:00,
2013-04-23 00:52:00,20.0,16.0,30.67,SE,134,7.0,-999.0,85,-99.99,,,-99.99,,2013-04-23 06:52:00,
2013-04-23 01:02:00,20.0,16.0,30.67,East,99,6.0,-999.0,86,-99.99,,,-99.99,,2013-04-23 07:02:00,
2013-04-23 01:11:00,20.0,16.0,30.67,East,99,6.0,-999.0,86,-99.99,,,-99.99,,2013-04-23 07:11:00,
2013-04-23 01:21:00,19.0,16.0,30.67,East,87,4.0,-999.0,86,-99.99,,,-99.99,,2013-04-23 07:21:00,
2013-04-23 01:32:00,19.0,16.0,30.67,ENE,63,3.0,-999.0,86,-99.99,,,-99.99,,2013-04-23 07:32:00,
2013-04-23 01:41:00,19.0,16.0,30.67,ENE,63,3.0,-999.0,86,-99.99,,,-99.99,,2013-04-23 07:41:00,
2013-04-23 01:52:00,19.0,16.0,30.68,ENE,65,4.0,-999.0,87,-99.99,,,-99.99,,2013-04-23 07:52:00,
2013-04-23 02:01:00,19.0,16.0,30.68,ENE,65,4.0,-999.0,86,-99.99,,,-99.99,,2013-04-23 08:01:00,
2013-04-23 02:11:00,19.0,16.0,30.68,ENE,65,4.0,-999.0,86,-99.99,,,-99.99,,2013-04-23 08:11:00,
2013-04-23 02:21:00,19.0,16.0,30.67,ENE,59,5.0,-999.0,86,-99.99,,,-99.99,,2013-04-23 08:21:00,
2013-04-23 02:31:00,18.0,15.0,30.67,ENE,58,4.0,-999.0,87,-99.99,,,-99.99,,2013-04-23 08:31:00,
2013-04-23 02:42:00,18.0,15.0,30.67,ENE,58,4.0,-999.0,87,-99.99,,,-99.99,,2013-04-23 08:42:00,
2013-04-23 02:52:00,18.0,15.0,30.66,ENE,60,3.0,-999.0,87,-99.99,,,-99.99,,2013-04-23 08:52:00,
2013-04-23 03:01:00,17.0,14.0,30.66,ENE,60,3.0,-999.0,87,-99.99,,,-99.99,,2013-04-23 09:01:00,
2013-04-23 03:11:00,17.0,14.0,30.66,ENE,60,3.0,-999.0,87,-99.99,,,-99.99,,2013-04-23 09:11:00,
2013-04-23 03:21:00,17.0,14.0,30.66,ENE,60,3.0,-999.0,88,-99.99,,,-99.99,,2013-04-23 09:21:00,
2013-04-23 03:32:00,17.0,14.0,30.65,ENE,60,0.0,-999.0,87,-99.99,,,-99.99,,2013-04-23 09:32:00,
2013-04-23 03:42:00,17.0,14.0,30.65,ENE,60,0.0,-999.0,87,-99.99,,,-99.99,,2013-04-23 09:42:00,
2013-04-23 03:52:00,16.0,13.0,30.65,ENE,60,0.0,-999.0,86,-99.99,,,-99.99,,2013-04-23 09:52:00,
2013-04-23 04:02:00,16.0,13.0,30.65,ESE,121,0.0,-999.0,86,-99.99,,,-99.99,,2013-04-23 10:02:00,
2013-04-23 04:12:00,16.0,13.0,30.65,ESE,121,0.0,-999.0,86,-99.99,,,-99.99,,2013-04-23 10:12:00,
2013-04-23 04:22:00,16.0,13.0,30.66,SE,125,0.0,-999.0,88,-99.99,,,-99.99,,2013-04-23 10:22:00,
2013-04-23 04:32:00,17.0,14.0,30.65,SE,125,0.0,-999.0,89,-99.99,,,-99.99,,2013-04-23 10:32:00,
2013-04-23 04:42:00,17.0,14.0,30.65,SE,125,0.0,-999.0,89,-99.99,,,-99.99,,2013-04-23 10:42:00,
2013-04-23 04:52:00,17.0,14.0,30.66,SE,125,0.0,-999.0,89,-99.99,,,-99.99,,2013-04-23 10:52:00,
2013-04-23 05:02:00,17.0,14.0,30.66,SE,125,0.0,-999.0,89,-99.99,,,-99.99,,2013-04-23 11:02:00,
2013-04-23 05:11:00,17.0,14.0,30.66,SE,125,0.0,-999.0,89,-99.99,,,-99.99,,2013-04-23 11:11:00,
2013-04-23 05:21:00,16.0,13.0,30.65,SE,125,0.0,-999.0,88,-99.99,,,-99.99,,2013-04-23 11:21:00,
2013-04-23 05:32:00,16.0,13.0,30.65,SE,125,0.0,-999.0,89,-99.99,,,-99.99,,2013-04-23 11:32:00,
2013-04-23 05:42:00,16.0,13.0,30.65,SE,125,0.0,-999.0,89,-99.99,,,-99.99,,2013-04-23 11:42:00,
2013-04-23 05:52:00,15.0,12.0,30.65,SE,125,0.0,-999.0,89,-99.99,,,-99.99,,2013-04-23 11:52:00,
2013-04-23 06:02:00,15.0,13.0,30.65,SE,125,0.0,-999.0,90,-99.99,,,-99.99,,2013-04-23 12:02:00,
2013-04-23 06:12:00,15.0,13.0,30.65,SE,125,0.0,-999.0,90,-99.99,,,-99.99,,2013-04-23 12:12:00,
2013-04-23 06:22:00,16.0,14.0,30.65,SE,125,0.0,-999.0,90,-99.99,,,-99.99,,2013-04-23 12:22:00,
2013-04-23 06:32:00,16.0,14.0,30.64,SE,125,0.0,-999.0,90,-99.99,,,-99.99,,2013-04-23 12:32:00,
2013-04-23 06:41:00,16.0,14.0,30.64,SE,125,0.0,-999.0,90,-99.99,,,-99.99,,2013-04-23 12:41:00,
2013-04-23 06:51:00,15.0,13.0,30.65,South,177,0.0,-999.0,90,-99.99,,,-99.99,,2013-04-23 12:51:00,
2013-04-23 07:01:00,15.0,13.0,30.66,South,177,0.0,-999.0,90,-99.99,,,-99.99,,2013-04-23 13:01:00,
2013-04-23 07:11:00,15.0,13.0,30.66,South,177,0.0,-999.0,90,-99.99,,,-99.99,,2013-04-23 13:11:00,
2013-04-23 07:21:00,15.0,13.0,30.66,South,177,0.0,-999.0,90,-99.99,,,-99.99,,2013-04-23 13:21:00,
2013-04-23 07:32:00,15.0,13.0,30.66,South,177,0.0,-999.0,90,-99.99,,,-99.99,,2013-04-23 13:32:00,
2013-04-23 07:41:00,15.0,13.0,30.66,South,177,0.0,-999.0,90,-99.99,,,-99.99,,2013-04-23 13:41:00,
2013-04-23 07:52:00,14.0,11.0,30.67,WNW,286,1.0,-999.0,88,-99.99,,,-99.99,,2013-04-23 13:52:00,
2013-04-23 08:01:00,16.0,14.0,30.67,WNW,286,0.0,-999.0,90,-99.99,,,-99.99,,2013-04-23 14:01:00,
2013-04-23 08:11:00,16.0,14.0,30.67,WNW,286,0.0,-999.0,90,-99.99,,,-99.99,,2013-04-23 14:11:00,
2013-04-23 08:22:00,17.0,14.0,30.66,WNW,286,0.0,-999.0,89,-99.99,,,-99.99,,2013-04-23 14:22:00,
2013-04-23 08:31:00,15.0,12.0,30.66,WSW,246,0.0,-999.0,88,-99.99,,,-99.99,,2013-04-23 14:31:00,
2013-04-23 08:41:00,15.0,12.0,30.66,WSW,246,0.0,-999.0,88,-99.99,,,-99.99,,2013-04-23 14:41:00,
2013-04-23 08:52:00,16.0,13.0,30.67,SW,227,1.0,-999.0,88,-99.99,,,-99.99,,2013-04-23 14:52:00,
2013-04-23 09:01:00,16.0,13.0,30.67,SW,227,1.0,-999.0,88,-99.99,,,-99.99,,2013-04-23 15:01:00,
2013-04-23 09:11:00,17.0,14.0,30.67,SW,232,1.0,-999.0,87,-99.99,,,-99.99,,2013-04-23 15:11:00,
2013-04-23 09:21:00,18.0,15.0,30.66,SW,234,1.0,-999.0,87,-99.99,,,-99.99,,2013-04-23 15:21:00,
2013-04-23 09:32:00,20.0,16.0,30.66,West,272,0.0,-999.0,86,-99.99,,,-99.99,,2013-04-23 15:32:00,
2013-04-23 09:42:00,20.0,16.0,30.66,West,272,0.0,-999.0,86,-99.99,,,-99.99,,2013-04-23 15:42:00,
2013-04-23 09:52:00,22.0,18.0,30.65,WSW,258,0.0,-999.0,84,-99.99,,,-99.99,,2013-04-23 15:52:00,
2013-04-23 10:02:00,22.0,17.0,30.65,WSW,243,2.0,-999.0,80,-99.99,,,-99.99,,2013-04-23 16:02:00,
2013-04-23 10:12:00,22.0,17.0,30.65,WSW,243,2.0,-999.0,80,-99.99,,,-99.99,,2013-04-23 16:12:00,
2013-04-23 10:23:00,23.0,18.0,30.64,WSW,244,1.0,-999.0,80,-99.99,,,-99.99,,2013-04-23 16:23:00,
2013-04-23 10:33:00,23.0,17.0,30.64,South,169,1.0,-999.0,78,-99.99,,,-99.99,,2013-04-23 16:33:00,
2013-04-23 10:42:00,23.0,17.0,30.64,South,169,1.0,-999.0,78,-99.99,,,-99.99,,2013-04-23 16:42:00,
2013-04-23 10:52:00,23.0,17.0,30.63,SSE,165,1.0,-999.0,77,-99.99,,,-99.99,,2013-04-23 16:52:00,
2013-04-23 11:02:00,24.0,18.0,30.63,SSE,148,2.0,-999.0,77,-99.99,,,-99.99,,2013-04-23 17:02:00,
2013-04-23 11:11:00,24.0,18.0,30.63,SSE,148,2.0,-999.0,77,-99.99,,,-99.99,,2013-04-23 17:11:00,
2013-04-23 11:22:00,24.0,17.0,30.63,South,182,2.0,-999.0,75,-99.99,,,-99.99,,2013-04-23 17:22:00,
2013-04-23 11:32:00,24.0,17.0,30.63,South,182,2.0,-999.0,75,-99.99,,,-99.99,,2013-04-23 17:32:00,
2013-04-23 11:42:00,24.0,17.0,30.63,South,182,2.0,-999.0,75,-99.99,,,-99.99,,2013-04-23 17:42:00,
2013-04-23 11:53:00,26.0,18.0,30.62,SSW,205,1.0,-999.0,71,-99.99,,,-99.99,,2013-04-23 17:53:00,
2013-04-23 12:02:00,27.0,19.0,30.62,SSW,194,2.0,-999.0,71,-99.99,,,-99.99,,2013-04-23 18:02:00,
2013-04-23 12:12:00,27.0,19.0,30.62,SSW,194,2.0,-999.0,71,-99.99,,,-99.99,,2013-04-23 18:12:00,
2013-04-23 12:22:00,28.0,19.0,30.61,SE,139,1.0,-999.0,69,-99.99,,,-99.99,,2013-04-23 18:22:00,
2013-04-23 12:32:00,28.0,19.0,30.59,SE,132,1.0,-999.0,68,-99.99,,,-99.99,,2013-04-23 18:32:00,
2013-04-23 12:42:00,28.0,19.0,30.59,SE,132,1.0,-999.0,68,-99.99,,,-99.99,,2013-04-23 18:42:00,
2013-04-23 12:52:00,29.0,19.0,30.58,SE,143,1.0,-999.0,65,-99.99,,,-99.99,,2013-04-23 18:52:00,
2013-04-23 13:02:00,29.0,19.0,30.58,SSW,205,2.0,-999.0,67,-99.99,,,-99.99,,2013-04-23 19:02:00,
2013-04-23 13:11:00,29.0,19.0,30.58,SSW,205,2.0,-999.0,67,-99.99,,,-99.99,,2013-04-23 19:11:00,
2013-04-23 13:21:00,30.0,19.0,30.57,SW,232,1.0,-999.0,64,-99.99,,,-99.99,,2013-04-23 19:21:00,
2013-04-23 13:32:00,31.0,21.0,30.56,South,188,1.0,-999.0,66,-99.99,,,-99.99,,2013-04-23 19:32:00,
2013-04-23 13:42:00,31.0,21.0,30.56,South,188,1.0,-999.0,66,-99.99,,,-99.99,,2013-04-23 19:42:00,
2013-04-23 13:52:00,32.0,20.0,30.55,SSW,205,1.0,-999.0,62,-99.99,,,-99.99,,2013-04-23 19:52:00,
2013-04-23 14:01:00,34.0,22.0,30.54,South,189,0.0,-999.0,60,-99.99,,,-99.99,,2013-04-23 20:01:00,
2013-04-23 14:11:00,34.0,22.0,30.54,South,189,0.0,-999.0,60,-99.99,,,-99.99,,2013-04-23 20:11:00,
2013-04-23 14:21:00,33.0,19.0,30.54,WSW,246,2.0,-999.0,57,-99.99,,,-99.99,,2013-04-23 20:21:00,
2013-04-23 14:31:00,34.0,20.0,30.53,WSW,246,3.0,-999.0,57,-99.99,,,-99.99,,2013-04-23 20:31:00,
2013-04-23 14:41:00,34.0,20.0,30.53,WSW,246,3.0,-999.0,57,-99.99,,,-99.99,,2013-04-23 20:41:00,
2013-04-23 14:51:00,34.0,18.0,30.53,South,185,0.0,-999.0,51,-99.99,,,-99.99,,2013-04-23 20:51:00,
2013-04-23 15:01:00,36.0,17.0,30.52,SW,221,1.0,-999.0,46,-99.99,,,-99.99,,2013-04-23 21:01:00,
2013-04-23 15:11:00,36.0,17.0,30.52,SW,221,1.0,-999.0,46,-99.99,,,-99.99,,2013-04-23 21:11:00,
2013-04-23 15:21:00,37.0,17.0,30.52,South,169,1.0,-999.0,44,-99.99,,,-99.99,,2013-04-23 21:21:00,
2013-04-23 15:32:00,37.0,19.0,30.51,ESE,119,1.0,-999.0,48,-99.99,,,-99.99,,2013-04-23 21:32:00,
2013-04-23 15:43:00,37.0,19.0,30.51,ESE,119,1.0,-999.0,48,-99.99,,,-99.99,,2013-04-23 21:43:00,
2013-04-23 15:52:00,37.0,18.0,30.50,SW,220,1.0,-999.0,46,-99.99,,,-99.99,,2013-04-23 21:52:00,
2013-04-23 16:02:00,37.0,18.0,30.50,ESE,102,2.0,-999.0,45,-99.99,,,-99.99,,2013-04-23 22:02:00,
2013-04-23 16:12:00,37.0,18.0,30.50,ESE,102,2.0,-999.0,45,-99.99,,,-99.99,,2013-04-23 22:12:00,
2013-04-23 16:22:00,38.0,19.0,30.49,SE,133,0.0,-999.0,46,-99.99,,,-99.99,,2013-04-23 22:22:00,
2013-04-23 16:33:00,39.0,19.0,30.48,ESE,114,1.0,-999.0,45,-99.99,,,-99.99,,2013-04-23 22:33:00,
2013-04-23 16:42:00,39.0,19.0,30.48,ESE,114,1.0,-999.0,45,-99.99,,,-99.99,,2013-04-23 22:42:00,
2013-04-23 16:52:00,39.0,19.0,30.47,ESE,122,3.0,-999.0,44,-99.99,,,-99.99,,2013-04-23 22:52:00,
2013-04-23 17:02:00,38.0,19.0,30.47,West,280,1.0,-999.0,46,-99.99,,,-99.99,,2013-04-23 23:02:00,
2013-04-23 17:12:00,38.0,19.0,30.47,West,280,1.0,-999.0,46,-99.99,,,-99.99,,2013-04-23 23:12:00,
2013-04-23 17:22:00,39.0,17.0,30.46,SE,133,3.0,-999.0,40,-99.99,,,-99.99,,2013-04-23 23:22:00,
2013-04-23 17:31:00,39.0,17.0,30.46,NE,53,5.0,-999.0,40,-99.99,,,-99.99,,2013-04-23 23:31:00,
2013-04-23 17:41:00,39.0,17.0,30.46,NE,53,5.0,-999.0,40,-99.99,,,-99.99,,2013-04-23 23:41:00,
2013-04-23 17:52:00,38.0,16.0,30.46,East,97,3.0,-999.0,40,-99.99,,,-99.99,,2013-04-23 23:52:00,
2013-04-23 18:01:00,38.0,16.0,30.46,ENE,65,5.0,-999.0,40,-99.99,,,-99.99,,2013-04-24 00:01:00,
2013-04-23 18:11:00,38.0,16.0,30.46,ENE,65,5.0,-999.0,40,-99.99,,,-99.99,,2013-04-24 00:11:00,
2013-04-23 18:21:00,38.0,16.0,30.46,ENE,71,4.0,-999.0,40,-99.99,,,-99.99,,2013-04-24 00:21:00,
2013-04-23 18:32:00,38.0,15.0,30.45,ENE,63,4.0,-999.0,39,-99.99,,,-99.99,,2013-04-24 00:32:00,
2013-04-23 18:41:00,38.0,15.0,30.45,ENE,63,4.0,-999.0,39,-99.99,,,-99.99,,2013-04-24 00:41:00,
2013-04-23 18:51:00,38.0,16.0,30.45,ENE,58,2.0,-999.0,40,-99.99,,,-99.99,,2013-04-24 00:51:00,
2013-04-23 19:01:00,37.0,14.0,30.45,ENE,58,3.0,-999.0,39,-99.99,,,-99.99,,2013-04-24 01:01:00,
2013-04-23 19:11:00,37.0,14.0,30.45,ENE,58,3.0,-999.0,39,-99.99,,,-99.99,,2013-04-24 01:11:00,
2013-04-23 19:21:00,37.0,15.0,30.45,ENE,62,2.0,-999.0,40,-99.99,,,-99.99,,2013-04-24 01:21:00,
2013-04-23 19:31:00,37.0,16.0,30.45,ENE,78,7.0,-999.0,41,-99.99,,,-99.99,,2013-04-24 01:31:00,
2013-04-23 19:42:00,37.0,16.0,30.45,ENE,78,7.0,-999.0,41,-99.99,,,-99.99,,2013-04-24 01:42:00,
2013-04-23 19:52:00,36.0,15.0,30.45,ENE,68,6.0,-999.0,41,-99.99,,,-99.99,,2013-04-24 01:52:00,
2013-04-23 20:02:00,35.0,13.0,30.45,ENE,67,6.0,-999.0,40,-99.99,,,-99.99,,2013-04-24 02:02:00,
2013-04-23 20:12:00,35.0,13.0,30.45,ENE,67,6.0,-999.0,40,-99.99,,,-99.99,,2013-04-24 02:12:00,
2013-04-23 20:23:00,35.0,13.0,30.46,ENE,77,5.0,-999.0,40,-99.99,,,-99.99,,2013-04-24 02:23:00,
2013-04-23 20:34:00,34.0,14.0,30.46,ENE,68,4.0,-999.0,43,-99.99,,,-99.99,,2013-04-24 02:34:00,
2013-04-23 20:53:00,33.0,11.0,30.46,ENE,67,4.0,-999.0,39,-99.99,,,-99.99,,2013-04-24 02:53:00,
2013-04-23 21:03:00,33.0,10.0,30.47,ENE,71,4.0,-999.0,38,-99.99,,,-99.99,,2013-04-24 03:03:00,
2013-04-23 21:12:00,33.0,10.0,30.47,ENE,71,4.0,-999.0,38,-99.99,,,-99.99,,2013-04-24 03:12:00,
2013-04-23 21:23:00,33.0,11.0,30.47,ENE,78,4.0,-999.0,40,-99.99,,,-99.99,,2013-04-24 03:23:00,
2013-04-23 21:35:00,33.0,13.0,30.47,ENE,76,3.0,-999.0,44,-99.99,,,-99.99,,2013-04-24 03:35:00,
2013-04-23 21:44:00,33.0,13.0,30.47,ENE,76,3.0,-999.0,44,-99.99,,,-99.99,,2013-04-24 03:44:00,
2013-04-23 21:53:00,33.0,14.0,30.47,East,79,3.0,-999.0,45,-99.99,,,-99.99,,2013-04-24 03:53:00,
2013-04-23 22:02:00,32.0,15.0,30.48,ENE,61,6.0,-999.0,48,-99.99,,,-99.99,,2013-04-24 04:02:00,
2013-04-23 22:12:00,32.0,15.0,30.48,ENE,61,6.0,-999.0,48,-99.99,,,-99.99,,2013-04-24 04:12:00,
2013-04-23 22:22:00,31.0,16.0,30.48,ENE,70,6.0,-999.0,54,-99.99,,,-99.99,,2013-04-24 04:22:00,
2013-04-23 22:33:00,31.0,18.0,30.48,ENE,62,5.0,-999.0,57,-99.99,,,-99.99,,2013-04-24 04:33:00,
2013-04-23 22:43:00,31.0,18.0,30.48,ENE,62,5.0,-999.0,57,-99.99,,,-99.99,,2013-04-24 04:43:00,
2013-04-23 22:52:00,30.0,17.0,30.48,NE,54,5.0,-999.0,57,-99.99,,,-99.99,,2013-04-24 04:52:00,
2013-04-23 23:02:00,30.0,14.0,30.48,ENE,67,7.0,-999.0,51,-99.99,,,-99.99,,2013-04-24 05:02:00,
2013-04-23 23:12:00,30.0,14.0,30.48,ENE,67,7.0,-999.0,51,-99.99,,,-99.99,,2013-04-24 05:12:00,
2013-04-23 23:21:00,30.0,14.0,30.48,ENE,71,6.0,-999.0,50,-99.99,,,-99.99,,2013-04-24 05:21:00,
2013-04-23 23:32:00,29.0,14.0,30.48,ENE,57,4.0,-999.0,52,-99.99,,,-99.99,,2013-04-24 05:32:00,
2013-04-23 23:42:00,29.0,14.0,30.48,ENE,57,4.0,-999.0,52,-99.99,,,-99.99,,2013-04-24 05:42:00,
2013-04-23 23:51:00,29.0,14.0,30.48,ENE,71,0.0,-999.0,54,-99.99,,,-99.99,,2013-04-24 05:51:00,